FW5291 Weather Reports


time (UTC)temp
C
wind
direction
speed
KPH
gust
KPH
rain 1hr
cm
rain 24hr
cm
rain mn
cm
humidity
%
barometer
mb
20260509031522 23 227 3.2 0.0 0.00 0.00 0.00 53 1022.2
20260509030030 22 184 3.2 0.0 0.00 0.00 0.00 53 1022.2
20260509024518 22 65 6.4 0.0 0.00 0.00 0.00 56 1022.5
20260509023026 22 93 1.6 0.0 0.00 0.00 0.00 54 1022.7
20260509021515 22 209 3.2 0.0 0.00 0.00 0.00 56 1023.0
20260509020013 21 185 3.2 0.0 0.00 0.00 0.00 55 1023.2
20260509014512 21 187 3.2 0.0 0.00 0.00 0.00 55 1023.4
20260509013010 21 134 3.2 0.0 0.00 0.00 0.00 56 1023.6
20260509011508 21 189 3.2 0.0 0.00 0.00 0.00 56 1023.9
20260509010012 20 180 3.2 0.0 0.00 0.00 0.00 56 1024.0
20260509004502 20 235 3.2 0.0 0.00 0.00 0.00 58 1024.2
20260509003134 19 267 3.2 0.0 0.00 0.00 0.00 60 1024.5
20260509001605 18 246 3.2 0.0 0.00 0.00 0.00 62 1024.5
20260509000108 18 321 3.2 0.0 0.00 0.00 0.00 68 1024.6
20260508234549 17 216 3.2 0.0 0.00 0.00 0.00 72 1024.6
20260508233047 15 174 3.2 0.0 0.00 0.00 0.00 75 1024.7
20260508231547 15 221 1.6 0.0 0.00 0.00 0.00 78 1024.6
20260508230037 13 337 1.6 0.0 0.00 0.00 0.00 81 1024.6
20260508224536 12 96 0.0 0.0 0.00 0.00 0.00 83 1024.6
20260508223029 11 95 0.0 0.0 0.00 0.00 0.00 90 1024.5
20260508221525 10 96 0.0 0.0 0.00 0.00 0.00 93 1024.4
20260508220023 8 96 0.0 0.0 0.00 0.00 0.00 94 1024.3
20260508214517 7 95 0.0 0.0 0.00 0.00 0.00 95 1024.1
20260508213014 6 95 0.0 0.0 0.00 0.00 0.00 95 1024.0
20260508211512 5 96 0.0 0.0 0.00 0.00 0.00 94 1023.8
20260508210013 4 94 0.0 0.0 0.00 0.00 0.00 93 1023.5
20260508204509 4 96 0.0 0.0 0.00 0.00 0.00 93 1023.4
20260508203006 5 95 0.0 0.0 0.00 0.00 0.00 94 1023.3
20260508201505 5 96 0.0 0.0 0.00 0.00 0.00 93 1023.0
20260508200003 4 95 0.0 0.0 0.00 0.00 0.00 93 1022.8
20260508194602 4 96 0.0 0.0 0.00 0.00 0.00 93 1022.5
20260508193109 4 94 0.0 0.0 0.00 0.00 0.00 93 1022.2
20260508191556 4 96 0.0 0.0 0.00 0.00 0.00 93 1022.0
20260508190058 5 94 0.0 0.0 0.00 0.00 0.00 93 1021.9
20260508184602 5 96 0.0 0.0 0.00 0.00 0.00 93 1021.8
20260508183103 5 94 0.0 0.0 0.00 0.00 0.00 93 1021.7
20260508181550 5 96 0.0 0.0 0.00 0.00 0.00 93 1021.6
20260508180050 5 95 0.0 0.0 0.00 0.00 0.00 93 1021.6
20260508174600 5 94 1.6 0.0 0.00 0.00 0.00 92 1021.5
20260508173046 5 96 1.6 0.0 0.00 0.00 0.00 92 1021.5
20260508171545 5 95 0.0 0.0 0.00 0.00 0.00 92 1021.4
20260508170044 5 95 1.6 0.0 0.00 0.00 0.00 92 1021.4
20260508164547 5 96 0.0 0.0 0.00 0.00 0.00 92 1021.4
20260508163106 5 95 0.0 0.0 0.00 0.00 0.00 92 1021.4
20260508161539 6 96 0.0 0.0 0.00 0.00 0.00 92 1021.3
20260508160038 6 96 0.0 0.0 0.00 0.00 0.00 92 1021.3
20260508154537 6 94 0.0 0.0 0.00 0.00 0.00 92 1021.3
20260508153036 6 96 0.0 0.0 0.00 0.00 0.00 92 1021.3
20260508151540 6 96 0.0 0.0 0.00 0.00 0.00 92 1021.3
20260508150033 6 95 0.0 0.0 0.00 0.00 0.00 91 1021.2
20260508144537 6 95 0.0 0.0 0.00 0.00 0.00 91 1021.2
20260508143029 6 96 0.0 0.0 0.00 0.00 0.00 91 1021.1
20260508141528 7 95 0.0 0.0 0.00 0.00 0.00 91 1021.1
20260508140031 7 95 0.0 0.0 0.00 0.00 0.00 91 1021.1
20260508134533 7 96 0.0 0.0 0.00 0.00 0.00 91 1021.2
20260508133025 7 96 0.0 0.0 0.00 0.00 0.00 90 1021.2
20260508131525 7 96 0.0 0.0 0.00 0.00 0.00 90 1021.2
20260508130024 7 95 0.0 0.0 0.00 0.00 0.00 90 1021.2
20260508124524 7 95 0.0 0.0 0.00 0.00 0.00 90 1021.1
20260508123031 7 96 0.0 0.0 0.00 0.00 0.00 89 1021.2
20260508121523 8 96 0.0 0.0 0.00 0.00 0.00 89 1021.3
20260508120022 8 96 0.0 0.0 0.00 0.00 0.00 88 1021.3
20260508114519 8 96 0.0 0.0 0.00 0.00 0.00 87 1021.1
20260508113017 9 95 0.0 0.0 0.00 0.00 0.00 86 1020.8
20260508111517 9 96 0.0 0.0 0.00 0.00 0.00 85 1020.6
20260508110017 10 95 0.0 0.0 0.00 0.00 0.00 84 1020.5
20260508104515 10 95 0.0 0.0 0.00 0.00 0.00 83 1020.3
20260508103014 10 95 0.0 0.0 0.00 0.00 0.00 81 1020.1
20260508101527 11 95 0.0 0.0 0.00 0.00 0.00 81 1019.9
20260508100014 11 95 0.0 0.0 0.00 0.00 0.00 81 1019.7
20260508094514 11 95 0.0 0.0 0.00 0.00 0.00 77 1019.3
20260508093035 12 96 0.0 0.0 0.00 0.00 0.00 76 1019.0
20260508091516 12 96 0.0 0.0 0.00 0.00 0.00 74 1018.7
20260508090026 13 96 0.0 0.0 0.00 0.00 0.00 70 1018.6
20260508084512 13 96 0.0 0.0 0.00 0.00 0.00 69 1018.4
20260508083017 14 96 0.0 0.0 0.00 0.00 0.00 63 1018.3
20260508081512 15 95 0.0 0.0 0.00 0.00 0.00 59 1018.2
20260508080011 16 95 1.6 0.0 0.00 0.00 0.00 55 1017.9
20260508074515 16 96 1.6 0.0 0.00 0.00 0.00 52 1017.5
20260508073011 17 72 1.6 0.0 0.00 0.00 0.00 50 1017.2
20260508071510 18 72 1.6 0.0 0.00 0.00 0.00 49 1017.0
20260508070010 18 72 1.6 0.0 0.00 0.00 0.00 48 1016.6
20260508064512 19 72 0.0 0.0 0.00 0.00 0.00 47 1016.3
20260508063009 20 72 1.6 0.0 0.00 0.00 0.00 43 1016.2
20260508061508 21 72 1.6 0.0 0.00 0.00 0.00 42 1016.1
20260508060007 21 56 1.6 0.0 0.00 0.00 0.00 40 1016.0
20260508054506 21 273 1.6 0.0 0.00 0.00 0.00 41 1015.9
20260508053004 21 59 1.6 0.0 0.00 0.00 0.00 38 1016.0
20260508051503 21 270 3.2 0.0 0.00 0.00 0.00 40 1015.9
20260508050003 22 42 4.8 0.0 0.00 0.00 0.00 38 1015.6
20260508044501 22 32 4.8 0.0 0.00 0.00 0.00 39 1015.5
20260508043100 22 299 3.2 0.0 0.00 0.00 0.00 37 1015.6
20260508041600 22 296 3.2 0.0 0.00 0.00 0.00 38 1015.8
20260508040058 22 32 3.2 0.0 0.00 0.00 0.00 37 1015.9
20260508034601 22 227 3.2 0.0 0.00 0.00 0.00 35 1016.2
20260508033049 21 34 3.2 0.0 0.00 0.00 0.00 34 1016.6